EW1476 Weather Reports


Display with metric or nautical units.
time (UTC)temp
F
wind
direction
speed
MPH
gust
MPH
rain 1hr
in
rain 24hr
in
rain mn
in
humidity
%
barometer
mb
20260906180026 74 330 0.0 2.0 0.00 0.00 0.00 66 1016.5
20260906174519 75 324 0.0 3.0 0.00 0.00 0.00 64 1016.6
20260906173016 75 288 0.0 3.0 0.00 0.00 0.00 68 1016.7
20260906171511 74 289 0.0 3.0 0.00 0.00 0.00 67 1016.7
20260906170006 74 289 1.0 3.0 0.00 0.00 0.00 70 1016.8
20260906164506 74 289 0.0 1.0 0.00 0.00 0.00 68 1017.0
20260906163028 73 289 1.0 2.0 0.00 0.00 0.00 67 1017.0
20260906161519 73 290 0.0 1.0 0.00 0.00 0.00 71 1017.0
20260906160016 72 290 0.0 1.0 0.00 0.00 0.00 72 1017.1
20260906154514 72 288 0.0 1.0 0.00 0.00 0.00 74 1017.1
20260906153026 71 287 0.0 1.0 0.00 0.00 0.00 75 1017.3
20260906151504 71 287 0.0 1.0 0.00 0.00 0.00 76 1017.1
20260906150033 70 286 0.0 2.0 0.00 0.00 0.00 78 1017.2
20260906144531 70 287 0.0 0.0 0.00 0.00 0.00 79 1017.0
20260906143029 69 285 0.0 0.0 0.00 0.00 0.00 80 1016.9
20260906141515 68 285 0.0 0.0 0.00 0.00 0.00 82 1016.8
20260906140017 68 285 0.0 0.0 0.00 0.00 0.00 82 1016.9
20260906134531 67 285 0.0 0.0 0.00 0.00 0.00 82 1016.8
20260906133029 67 285 0.0 0.0 0.00 0.00 0.00 83 1016.8
20260906131527 66 285 0.0 0.0 0.00 0.00 0.00 84 1016.8
20260906130025 65 283 0.0 0.0 0.00 0.00 0.00 86 1016.6
20260906124518 64 283 0.0 0.0 0.00 0.00 0.00 87 1016.6
20260906123029 63 283 0.0 0.0 0.00 0.00 0.00 87 1016.4
20260906121532 63 283 0.0 0.0 0.00 0.00 0.00 88 1016.3
20260906120032 62 283 0.0 0.0 0.00 0.00 0.00 88 1016.2
20260906114528 62 283 0.0 0.0 0.00 0.00 0.00 88 1016.0
20260906113026 61 283 0.0 0.0 0.00 0.00 0.00 88 1015.8
20260906111528 61 283 0.0 0.0 0.00 0.00 0.00 89 1015.8
20260906110019 61 283 0.0 0.0 0.00 0.00 0.00 89 1015.8
20260906104518 61 283 0.0 0.0 0.00 0.00 0.00 90 1015.5
20260906103014 61 283 0.0 0.0 0.00 0.00 0.00 89 1015.2
20260906101518 62 283 0.0 0.0 0.00 0.00 0.00 88 1014.9
20260906100005 61 283 0.0 0.0 0.00 0.00 0.00 89 1014.7
20260906094528 61 283 0.0 0.0 0.00 0.00 0.00 90 1014.7
20260906093034 59 283 0.0 0.0 0.00 0.00 0.00 92 1014.6
20260906091518 60 283 0.0 1.0 0.00 0.00 0.00 92 1014.5
20260906090035 59 283 0.0 1.0 0.00 0.00 0.00 92 1014.4
20260906084512 60 283 0.0 0.0 0.00 0.00 0.00 92 1014.3
20260906083007 60 283 0.0 0.0 0.00 0.00 0.00 91 1014.4
20260906081529 60 283 0.0 0.0 0.00 0.00 0.00 92 1014.5
20260906080028 60 283 0.0 0.0 0.00 0.00 0.00 92 1014.3
20260906074524 61 283 0.0 0.0 0.00 0.00 0.00 91 1014.1
20260906073019 61 283 0.0 0.0 0.00 0.00 0.00 90 1014.1
20260906071512 60 283 0.0 0.0 0.00 0.00 0.00 92 1014.1
20260906070036 60 283 0.0 0.0 0.00 0.00 0.00 92 1014.1
20260906064532 61 283 0.0 0.0 0.00 0.00 0.00 92 1014.1
20260906063042 61 283 0.0 0.0 0.00 0.00 0.00 92 1014.0
20260906061528 60 283 0.0 0.0 0.00 0.00 0.00 93 1014.2
20260906060023 61 283 0.0 0.0 0.00 0.00 0.00 93 1014.1
20260906054517 61 283 0.0 0.0 0.00 0.00 0.00 93 1014.2
20260906053034 61 283 0.0 0.0 0.00 0.00 0.00 93 1014.2
20260906051549 61 283 0.0 0.0 0.00 0.00 0.00 93 1014.3
20260906050039 61 283 0.0 0.0 0.00 0.00 0.00 92 1014.3
20260906044529 62 283 0.0 0.0 0.00 0.00 0.00 92 1014.5
20260906043023 62 283 0.0 0.0 0.00 0.00 0.00 92 1014.5
20260906041523 62 283 0.0 0.0 0.00 0.00 0.00 92 1014.5
20260906040037 63 283 0.0 0.0 0.00 0.00 0.00 92 1014.4
20260906034511 63 283 0.0 0.0 0.00 0.00 0.00 92 1014.5
20260906033010 63 283 0.0 0.0 0.00 0.00 0.00 92 1014.6
20260906031509 64 283 0.0 0.0 0.00 0.00 0.00 92 1014.5
20260906030003 64 283 0.0 0.0 0.00 0.00 0.00 92 1014.5
20260906024504 65 283 0.0 0.0 0.00 0.00 0.00 91 1014.4
20260906023017 65 283 0.0 0.0 0.00 0.00 0.00 91 1014.3
20260906021515 66 283 0.0 0.0 0.00 0.00 0.00 91 1014.3
20260906020017 66 283 0.0 0.0 0.00 0.00 0.00 91 1014.3
20260906014508 67 283 0.0 0.0 0.00 0.00 0.00 90 1014.1
20260906013007 67 283 0.0 0.0 0.00 0.00 0.00 89 1013.7
20260906011504 68 283 0.0 0.0 0.00 0.00 0.00 89 1013.6
20260906010025 69 283 0.0 0.0 0.00 0.00 0.00 88 1013.5
20260906004518 69 283 0.0 0.0 0.00 0.00 0.00 88 1013.5
20260906003012 69 283 0.0 0.0 0.00 0.00 0.00 86 1013.4
20260906001511 70 283 0.0 0.0 0.00 0.00 0.00 86 1013.2
20260906000007 71 283 0.0 0.0 0.00 0.00 0.00 84 1013.1
20260905234530 71 283 0.0 0.0 0.00 0.00 0.00 83 1013.0
20260905233023 73 283 0.0 0.0 0.00 0.00 0.00 80 1012.9
20260905231523 74 283 0.0 0.0 0.00 0.00 0.00 80 1012.8
20260905230021 74 283 0.0 0.0 0.00 0.00 0.00 76 1012.6
20260905224511 75 284 0.0 0.0 0.00 0.00 0.00 76 1012.5
20260905223008 75 284 0.0 0.0 0.00 0.00 0.00 75 1012.5
20260905221532 75 284 0.0 0.0 0.00 0.00 0.00 75 1012.4
20260905220026 75 284 0.0 0.0 0.00 0.00 0.00 72 1012.3
20260905214529 76 284 0.0 0.0 0.00 0.00 0.00 73 1012.3
20260905213020 76 284 0.0 1.0 0.00 0.00 0.00 70 1012.0
20260905211516 76 284 0.0 0.0 0.00 0.00 0.00 72 1011.7
20260905210013 77 285 0.0 1.0 0.00 0.00 0.00 70 1011.8
20260905204535 77 285 0.0 1.0 0.00 0.00 0.00 70 1011.9
20260905203029 77 283 0.0 0.0 0.00 0.00 0.00 70 1012.0
20260905201529 77 284 0.0 1.0 0.00 0.00 0.00 71 1012.1
20260905200024 76 283 0.0 0.0 0.00 0.00 0.00 70 1012.1
20260905194519 76 283 0.0 0.0 0.00 0.00 0.00 74 1012.3
20260905193035 76 283 0.0 0.0 0.00 0.00 0.00 73 1012.3
20260905191540 76 283 0.0 1.0 0.00 0.00 0.00 73 1012.4
20260905190033 75 284 0.0 0.0 0.00 0.00 0.00 75 1012.4
20260905184527 75 284 0.0 0.0 0.00 0.00 0.00 74 1012.7
20260905183023 74 284 0.0 0.0 0.00 0.00 0.00 75 1013.1
20260905181523 75 284 0.0 0.0 0.00 0.00 0.00 75 1013.0